Regional Weather Roundup
Issued by NWS Sioux Falls, SD

Home | Current Version | Previous Version | Graphics & Text | Print | Product List | Glossary Off
Versions: 1 2 3 4 5 6 7 8 9 10 11 12 13 14 15 16 17 18 19 20 21 22 23 24 25 26 27 28 29 30 31 32 33 34 35 36 37 38 39 40 41 42 43 44 45 46 47 48 49 50

000
ASUS43 KFSD 250202
RWRFSD

WEATHER ROUNDUP FOR SE SOUTH DAKOTA/SW MINNESOTA/NW IOWA
NATIONAL WEATHER SERVICE SIOUX FALLS SD
900 PM CDT FRI MAR 24 2017

NOTE: "FAIR" INDICATES FEW OR NO CLOUDS BELOW 12,000 FEET WITH NO
SIGNIFICANT WEATHER AND OR OBSTRUCTIONS TO VISIBILITY.


SDZ038>040-050-052>070-250300-
SOUTHEAST SOUTH DAKOTA

CITY           SKY/WX    TMP DP  RH WIND       PRES   REMARKS
BROOKINGS      CLOUDY    37  34  89 NE6       30.13R
CHAMBERLAIN    PTCLDY    43  35  74 N3        30.14R
HURON          PTCLDY    36  33  89 SE5       30.15R
MADISON        CLOUDY    36  36 100 NE13G21   30.13R
MITCHELL       CLEAR     35  32  88 NE8       30.16R WCI  29
SIOUX FALLS    CLOUDY    39  35  86 NE17      30.14R
WINNER         FAIR      41  32  70 SE8       30.12R
YANKTON        CLOUDY    39  36  87 NE13      30.11S
$$

MNZ071-072-080-081-089-090-097-098-250300-
SOUTHWEST MINNESOTA

CITY           SKY/WX    TMP DP  RH WIND       PRES   REMARKS
FAIRMONT       CLOUDY    40  37  89 N12       30.11S
JACKSON        CLOUDY    37  36  93 N18G24    30.12R FOG
LUVERNE        CLOUDY    36  32  87 NE13G22   30.12R
MARSHALL       CLOUDY    38  34  85 E12       30.17R
MONTEVIDEO     PTCLDY    34  34 100 SE9       30.18R WCI  26
PIPESTONE      CLOUDY    37  32  81 NE13G23   30.11R
REDWOOD FALLS  CLOUDY    39  32  76 NE10      30.16R
TRACY          CLOUDY    38  35  90 NE10      30.15S
WINDOM         CLOUDY    37  36  93 NE13G24   30.13S
WORTHINGTON    CLOUDY    36  35  96 NE20      30.11R FOG
$$

IAZ001>003-012>014-020>022-031-032-NEZ013-014-SDZ071-250300-
NORTHWEST IOWA

CITY           SKY/WX    TMP DP  RH WIND       PRES   REMARKS
CHEROKEE       CLOUDY    41  40  96 NE13G18   30.08S
ESTHERVILLE    CLOUDY    39  38  96 N17       30.10R
LE MARS        MIX PCPN  41  39  93 NE16G24   30.08F
ORANGE CITY    LGT RAIN  39  37  93 NE8       30.09S
SHELDON        CLOUDY    37  37 100 NE16      30.08F FOG
SIOUX CITY     LGT RAIN  42  40  92 NE15      30.06F
SPENCER        CLOUDY    40  38  93 NE18      30.09S
STORM LAKE     CLOUDY    39  39 100 NE20      30.05S FOG
$$

ABBREVIATIONS USED IN REMARKS
   TC - TEMPERATURE IN CELSIUS
  WCI - WIND CHILL INDEX
   HX - HEAT INDEX
  VSB - VISIBILITY





USA.gov is the U.S. government's official web portal to all federal, state and local government web resources and services.